Wind_Speed
10 11 11 11 11 10 9 10 10 10 11 11 11 11 11 11 10 11 11 11 10 9 9 9 9 9 10 10 10 10 10 10 11 11 12 13 13 13 13 13 13 12 12 13
11 11 11 11 11 10 10 10 10 11 11 11 11 11 11 11 10 10 11 11 10 11 10 10 10 10 10 10 10 10 10 11 11 12 12 13 14 14 14 14 14 14 13 13
10 10 11 11 11 10 10 10 10 11 11 12 12 12 11 11 10 10 11 11 11 11 11 11 11 10 10 10 10 11 11 12 12 12 13 14 14 15 15 15 15 16 15 15
10 10 10 11 11 11 11 11 11 11 11 11 12 12 11 10 10 10 10 10 11 11 11 12 12 11 10 11 11 12 12 13 12 13 13 14 14 15 16 16 16 16 16 16
10 11 11 11 10 11 11 11 11 11 11 11 11 11 10 10 10 10 9 10 10 11 12 12 13 12 11 11 12 12 12 13 13 14 14 14 15 15 15 16 16 16 16 17
10 11 11 11 11 11 12 11 11 11 11 11 11 11 10 9 9 10 10 10 11 12 12 12 13 12 12 12 12 12 12 13 14 15 15 15 15 15 16 16 16 16 16 17
10 11 11 11 11 11 12 11 12 12 12 12 11 10 9 9 9 9 10 10 11 12 12 12 13 13 13 13 13 13 13 14 15 15 15 15 15 15 16 16 17 17 17 17
10 10 10 11 11 11 12 12 12 13 13 12 12 11 9 9 9 9 9 10 10 11 12 12 13 13 13 14 14 14 15 15 16 16 16 16 16 15 16 16 17 17 18 18
11 11 11 11 12 12 12 12 13 14 14 13 13 12 11 10 10 10 10 10 10 11 12 13 13 14 14 15 15 16 16 16 16 16 16 16 16 16 17 17 17 18 18 18
12 12 11 12 12 12 12 13 14 14 15 14 14 14 13 12 11 11 11 11 11 12 12 13 14 14 15 15 16 16 16 16 16 16 17 17 16 17 17 18 18 18 19 19
13 12 11 13 13 12 13 13 14 14 15 15 15 14 14 14 13 12 12 12 13 13 14 14 14 15 15 16 16 17 17 17 17 17 17 16 16 17 18 19 19 19 20 20
14 15 14 13 13 14 14 15 15 15 15 16 17 15 14 14 14 14 14 14 14 14 15 15 15 16 16 17 17 17 17 18 18 18 18 18 18 18 19 20 20 21 21 21
15 16 15 15 15 15 16 15 16 16 16 16 16 15 14 14 15 15 15 15 16 16 16 16 16 17 17 17 17 17 18 18 19 19 18 19 19 19 20 20 21 21 21 21
16 17 16 16 16 17 17 16 17 18 18 17 16 16 15 15 15 16 16 16 16 17 17 17 17 17 17 18 18 18 18 19 19 19 19 19 20 20 20 21 22 22 21 20
17 18 17 17 18 18 18 18 19 19 18 19 18 18 16 17 17 17 17 17 17 18 18 18 18 19 19 19 19 19 19 19 19 19 20 20 20 20 21 22 22 21 21 21
19 19 19 19 19 20 20 19 19 20 20 20 20 19 17 18 19 19 18 19 19 19 19 19 20 20 21 21 21 21 21 20 20 20 20 21 21 21 21 22 22 22 22 22
21 21 22 21 21 22 22 20 21 22 21 21 21 19 20 20 20 20 21 20 20 20 21 21 22 22 22 22 22 22 22 22 21 22 22 22 22 22 23 23 23 23 23 23
22 23 23 24 23 24 21 21 22 23 22 22 22 22 22 22 22 22 22 21 20 21 21 22 23 23 24 23 23 23 23 23 23 23 23 23 23 24 24 24 24 24 24 24
23 24 24 24 25 25 23 22 23 23 23 22 22 23 23 23 23 23 22 22 21 21 21 21 22 23 24 24 23 23 23 23 23 23 23 24 25 25 25 26 26 26 26 26
24 24 25 25 26 26 23 23 23 24 23 21 22 22 23 24 23 23 23 24 23 22 22 22 23 23 24 24 24 23 23 23 24 24 24 25 25 26 26 27 27 27 27 27
24 25 25 25 26 25 23 24 24 24 23 22 22 23 23 24 24 24 25 25 25 25 25 24 24 24 24 24 24 24 24 25 25 25 26 26 26 26 27 27 28 28 28 28
25 25 25 26 27 24 23 24 25 25 25 24 24 23 24 25 26 26 26 26 26 26 26 26 25 25 25 25 25 25 25 26 26 26 27 28 28 27 28 28 28 29 29 29
26 26 26 26 26 25 24 25 26 26 26 25 25 25 25 25 25 26 26 27 27 27 27 26 26 26 26 26 26 25 26 27 28 28 28 29 29 29 29 30 30 30 31 31
26 26 27 27 26 25 25 25 26 27 27 27 27 27 27 26 26 26 26 26 27 27 27 27 27 26 26 26 26 26 27 28 29 30 30 30 31 31 30 31 31 30 30 30
26 26 26 27 26 27 26 26 26 27 27 27 27 28 28 28 27 27 27 27 28 28 28 28 28 28 28 27 28 28 29 30 31 31 32 32 32 32 32 32 31 31 31 31
26 27 27 26 26 27 27 28 28 28 28 28 28 28 28 29 29 29 28 28 28 28 28 29 29 30 30 30 30 31 31 32 32 33 33 33 33 33 33 33 32 32 33 33
Wind_Direction
249 245 244 245 246 247 248 249 250 253 254 256 255 251 249 249 251 251 251 252 258 258 265 270 270 272 274 275 276 278 280 279 279 278 278 279 279 283 281 278 277 281 280 280
251 249 248 246 246 249 250 250 251 250 252 256 254 251 249 248 248 247 250 253 259 260 263 269 271 273 276 274 274 277 281 281 282 281 280 280 279 281 282 280 279 278 281 282
254 253 249 246 246 250 254 253 250 252 253 255 256 254 251 249 249 250 253 256 259 261 262 265 265 268 273 272 276 279 282 282 282 283 282 283 281 281 283 285 282 281 281 281
253 253 250 248 248 250 252 255 255 253 255 256 256 258 252 251 250 251 254 255 255 259 261 264 268 267 271 272 274 278 282 284 283 284 285 285 283 281 284 285 285 284 283 280
253 250 248 249 251 251 253 256 255 253 255 256 259 262 256 253 250 253 255 255 255 258 262 266 271 268 270 272 274 277 280 282 284 284 284 284 285 284 284 285 285 284 283 279
250 251 249 247 248 250 254 256 257 256 256 257 261 264 260 255 255 258 262 264 261 263 264 267 269 272 273 273 274 275 278 281 284 284 283 284 285 284 283 283 285 285 283 282
245 248 249 247 246 246 249 253 255 257 255 254 258 263 261 259 257 261 265 268 270 271 272 272 271 272 275 275 273 273 277 282 286 287 286 285 283 282 282 281 283 283 282 281
247 248 250 249 247 244 246 249 254 260 262 259 260 265 264 264 266 265 267 270 273 275 276 277 274 277 277 278 277 277 278 282 284 286 287 287 285 283 282 281 281 281 280 280
251 252 254 252 250 249 245 245 251 260 265 265 263 266 266 265 268 266 270 273 276 279 278 279 278 279 280 281 281 282 283 282 283 285 287 287 285 282 281 281 280 279 278 279
256 256 254 254 252 250 246 246 249 255 264 270 270 269 269 266 266 267 269 274 278 280 279 279 278 279 281 282 280 281 282 285 288 291 291 289 286 282 278 278 280 279 277 277
258 258 254 256 256 253 249 249 252 257 263 270 274 272 272 269 267 270 274 274 274 276 276 277 278 278 280 281 281 282 282 284 287 290 291 289 287 285 281 280 280 279 278 278
258 259 258 257 257 253 252 253 253 258 265 269 275 274 272 269 269 271 274 274 274 276 278 278 277 278 279 279 279 280 281 282 283 285 286 287 287 287 284 282 280 280 279 278
256 258 258 258 257 255 256 256 255 260 266 269 274 276 273 272 270 271 273 274 274 277 281 281 278 279 280 281 280 280 281 281 282 284 284 285 286 287 287 287 281 279 279 278
257 260 261 263 264 261 260 258 260 262 265 269 271 273 273 275 273 273 274 277 279 281 283 282 280 281 281 282 281 281 281 281 281 283 283 283 284 286 286 286 283 280 279 278
256 259 260 261 261 260 260 259 261 262 264 267 269 270 272 272 275 274 274 276 277 279 281 281 281 280 281 280 279 279 280 280 280 282 283 283 284 286 287 286 285 282 279 278
257 259 261 262 263 264 262 260 262 264 265 266 267 268 270 271 274 274 273 273 276 277 277 278 279 279 280 281 280 278 278 277 278 279 280 281 282 284 287 287 286 284 281 279
259 261 264 262 262 263 262 262 263 264 265 266 265 266 268 270 272 273 271 273 275 277 278 278 279 280 280 281 282 281 281 279 279 279 279 279 280 282 284 284 284 284 281 279
261 263 265 265 262 262 264 265 264 263 264 265 266 266 267 268 271 273 274 274 276 278 279 279 280 281 280 281 281 281 283 284 282 280 279 280 281 282 283 282 282 281 281 280
259 261 263 264 263 264 263 265 266 265 264 266 266 267 266 267 270 271 272 273 274 279 279 280 281 282 281 281 281 282 283 285 285 283 280 280 281 282 282 281 279 280 281 281
259 260 262 264 265 266 266 266 266 266 267 267 269 269 268 267 268 269 269 270 271 275 279 279 280 281 281 281 281 282 283 283 285 285 283 281 281 282 282 283 281 281 282 281
260 260 262 264 266 267 267 266 265 266 269 269 270 270 270 269 269 271 271 272 272 273 276 279 279 280 280 279 279 281 283 283 285 285 284 283 282 282 283 284 283 282 281 280
261 262 262 264 264 266 266 265 265 268 269 270 271 272 270 270 270 271 272 272 272 273 274 277 280 280 280 279 279 279 280 283 284 285 284 284 282 282 284 284 284 283 282 281
261 262 262 263 265 265 265 267 266 267 269 270 271 272 274 274 272 271 272 273 273 273 274 276 279 281 280 280 279 279 280 283 284 284 285 285 284 283 284 284 284 284 283 281
262 262 262 262 263 264 264 265 266 267 268 268 267 269 271 272 273 273 273 273 273 273 274 276 277 279 280 280 280 280 280 282 283 284 285 285 284 284 284 284 283 282 282 282
264 265 264 263 263 263 263 264 265 267 267 268 267 267 268 270 271 272 272 274 274 273 273 274 276 277 279 281 281 281 281 281 281 282 283 283 283 283 283 284 283 281 282 283
264 265 265 265 265 264 262 263 265 267 267 267 269 270 269 269 270 271 273 272 273 273 274 275 276 278 279 281 282 281 281 282 282 282 283 283 283 282 282 282 282 282 282 284
Height
5836 5837 5836 5837 5837 5837 5837 5837 5838 5839 5838 5839 5839 5839 5840 5840 5840 5841 5842 5843 5843 5844 5844 5843 5843 5843 5843 5843 5842 5842 5842 5841 5841 5841 5840 5840 5839 5838 5838 5837 5837 5837 5837 5836
5834 5834 5834 5834 5834 5834 5834 5835 5835 5835 5835 5835 5836 5836 5837 5837 5837 5838 5838 5839 5840 5840 5841 5841 5840 5840 5840 5840 5839 5839 5839 5839 5838 5838 5837 5837 5836 5835 5835 5834 5834 5833 5833 5833
5831 5832 5831 5831 5831 5831 5831 5832 5832 5832 5832 5832 5833 5833 5834 5834 5834 5835 5835 5836 5837 5837 5838 5838 5838 5837 5837 5836 5836 5836 5836 5836 5835 5834 5834 5833 5832 5832 5831 5831 5830 5829 5829 5828
5828 5828 5828 5828 5828 5828 5829 5829 5829 5829 5829 5829 5830 5830 5831 5831 5831 5832 5832 5833 5833 5834 5834 5834 5834 5834 5834 5834 5833 5833 5833 5832 5832 5831 5830 5829 5829 5828 5827 5827 5826 5825 5825 5825
5825 5825 5825 5825 5825 5825 5826 5826 5826 5826 5826 5827 5827 5827 5828 5828 5828 5829 5829 5830 5830 5830 5831 5831 5831 5831 5831 5831 5830 5830 5830 5829 5828 5827 5826 5825 5825 5824 5823 5822 5822 5821 5821 5820
5822 5822 5822 5822 5822 5823 5823 5823 5823 5823 5823 5824 5824 5824 5825 5825 5825 5826 5826 5827 5827 5827 5827 5827 5827 5827 5827 5827 5827 5826 5826 5825 5824 5823 5822 5821 5820 5819 5819 5818 5817 5817 5816 5816
5819 5819 5819 5819 5819 5819 5820 5820 5821 5820 5820 5820 5820 5820 5822 5822 5822 5823 5823 5823 5823 5824 5824 5823 5823 5823 5823 5823 5823 5823 5822 5822 5820 5819 5818 5817 5816 5815 5815 5814 5813 5813 5812 5811
5816 5816 5816 5816 5816 5816 5816 5817 5818 5818 5817 5817 5816 5816 5819 5818 5818 5819 5819 5820 5820 5820 5820 5820 5819 5819 5819 5819 5819 5818 5818 5817 5816 5815 5814 5813 5812 5811 5810 5809 5808 5808 5807 5806
5812 5813 5813 5813 5812 5813 5813 5813 5814 5814 5813 5813 5813 5814 5815 5814 5814 5815 5816 5816 5816 5816 5816 5816 5815 5815 5815 5815 5814 5814 5813 5812 5812 5811 5809 5808 5807 5806 5805 5804 5803 5803 5802 5801
5809 5810 5810 5809 5809 5809 5810 5809 5810 5810 5809 5809 5810 5810 5811 5810 5811 5812 5812 5812 5812 5812 5812 5812 5811 5811 5811 5810 5810 5809 5809 5808 5807 5806 5805 5803 5802 5801 5800 5799 5798 5798 5797 5796
5805 5806 5807 5806 5805 5805 5806 5806 5806 5806 5806 5806 5805 5809 5807 5807 5807 5807 5808 5808 5808 5808 5808 5808 5807 5807 5807 5806 5805 5804 5804 5803 5802 5801 5800 5799 5797 5796 5795 5794 5793 5792 5791 5790
5801 5801 5802 5802 5802 5801 5802 5802 5802 5803 5803 5802 5801 5805 5803 5803 5803 5803 5803 5803 5804 5804 5803 5803 5803 5803 5802 5801 5800 5799 5798 5798 5797 5796 5795 5794 5792 5791 5790 5789 5787 5786 5785 5784
5797 5797 5797 5798 5800 5799 5798 5798 5798 5799 5798 5797 5797 5801 5798 5799 5798 5799 5799 5799 5799 5799 5798 5798 5798 5797 5797 5796 5795 5794 5793 5792 5791 5790 5789 5788 5787 5786 5784 5782 5781 5780 5779 5778
5792 5792 5793 5794 5793 5793 5793 5794 5794 5794 5793 5793 5794 5794 5794 5794 5793 5794 5793 5793 5793 5793 5793 5792 5792 5791 5791 5790 5789 5788 5787 5786 5785 5784 5783 5782 5781 5780 5778 5777 5775 5774 5773 5772
5787 5787 5788 5788 5788 5787 5788 5789 5789 5788 5789 5789 5789 5789 5789 5789 5789 5789 5789 5788 5788 5788 5787 5787 5787 5786 5785 5784 5783 5782 5781 5780 5779 5778 5777 5776 5775 5774 5772 5771 5769 5768 5766 5765
5781 5782 5782 5783 5783 5782 5782 5783 5783 5783 5783 5784 5783 5784 5784 5784 5783 5783 5783 5783 5783 5782 5782 5781 5781 5780 5779 5778 5777 5775 5775 5774 5773 5772 5771 5770 5769 5767 5766 5764 5762 5761 5760 5759
5775 5776 5776 5777 5777 5776 5777 5779 5778 5778 5778 5778 5778 5779 5778 5778 5777 5777 5777 5777 5777 5776 5776 5775 5774 5773 5773 5771 5770 5769 5767 5767 5766 5765 5764 5763 5762 5761 5759 5758 5756 5754 5753 5752
5769 5769 5769 5769 5771 5769 5775 5773 5772 5772 5772 5772 5772 5772 5772 5772 5771 5770 5770 5770 5770 5769 5769 5768 5767 5766 5765 5764 5763 5762 5761 5760 5759 5758 5757 5756 5755 5753 5752 5750 5749 5747 5746 5745
5762 5762 5762 5762 5762 5763 5766 5767 5765 5765 5766 5766 5765 5765 5765 5765 5765 5764 5764 5764 5763 5762 5762 5761 5760 5759 5757 5756 5756 5755 5754 5753 5752 5751 5750 5748 5747 5746 5744 5743 5741 5740 5738 5737
5755 5755 5755 5755 5754 5756 5760 5759 5758 5759 5759 5759 5759 5758 5758 5758 5758 5759 5757 5757 5756 5756 5755 5754 5753 5752 5750 5749 5748 5747 5746 5746 5745 5743 5742 5741 5739 5737 5736 5734 5733 5731 5730 5728
5747 5747 5747 5747 5747 5748 5751 5751 5751 5752 5753 5752 5751 5751 5751 5751 5751 5751 5750 5750 5749 5749 5748 5747 5746 5745 5743 5742 5741 5740 5739 5738 5737 5736 5734 5733 5731 5729 5728 5726 5724 5723 5721 5720
5739 5739 5740 5740 5740 5744 5743 5743 5744 5744 5744 5744 5744 5744 5743 5743 5743 5743 5742 5742 5741 5741 5740 5739 5738 5737 5736 5735 5734 5733 5731 5730 5729 5728 5726 5725 5722 5720 5719 5717 5715 5713 5712 5710
5731 5732 5732 5733 5735 5735 5735 5735 5735 5735 5736 5736 5736 5736 5736 5735 5735 5735 5735 5734 5734 5733 5732 5732 5731 5730 5728 5727 5726 5725 5723 5722 5721 5719 5718 5716 5714 5711 5709 5707 5706 5704 5702 5701
5723 5723 5723 5724 5726 5726 5726 5726 5727 5727 5727 5727 5728 5728 5728 5728 5727 5727 5727 5726 5725 5725 5724 5723 5722 5721 5720 5719 5718 5716 5715 5713 5712 5710 5709 5707 5705 5702 5700 5698 5696 5694 5692 5691
5714 5715 5715 5716 5717 5718 5718 5718 5718 5718 5718 5719 5719 5719 5719 5719 5719 5718 5718 5717 5716 5716 5715 5715 5713 5712 5711 5710 5709 5707 5706 5704 5703 5701 5699 5697 5695 5693 5690 5688 5686 5684 5682 5681
5706 5707 5707 5708 5709 5709 5710 5710 5709 5709 5709 5710 5710 5710 5710 5710 5710 5709 5709 5708 5708 5707 5706 5705 5704 5703 5702 5701 5699 5698 5696 5694 5693 5691 5689 5687 5685 5682 5680 5678 5676 5674 5672 5671